Hourly Data Report for October 26, 2016

All times are specified in Local Standard Time (LST). Add 1 hour to adjust for Daylight Saving Time where and when it is observed.

ST LEONARD CS
NEW BRUNSWICK

47°09'28.050" N
67°49'55.014" W
245.00 m
810I001
71019
WIY

Download Data

Hourly Data (October 2016)
Hourly Data Report for October 26, 2016
Temp Definition
°C
Dew Point Temp Definition
°C
Rel Hum Definition
%
Wind Dir Definition
10's deg

Wind Spd Definition
km/h
Visibility Definition
km
Stn Press Definition
kPa
Hmdx Definition


Wind Chill Definition


Weather Definition


TIME
00:00 0.8 0.3 97 35 8   98.95     LegendNANA
01:00 0.6 0.2 97 35 9   98.99     LegendNANA
02:00 0.3 -0.1 97 35 7   99.06     LegendNANA
03:00 -0.1 -0.5 97 36 6   99.10   -2 LegendNANA
04:00 -0.4 -0.7 98 35 8   99.14   -3 LegendNANA
05:00 -0.6 -0.9 98 34 7   99.22   -3 LegendNANA
06:00 -0.7 -1.0 98 35 6   99.29   -3 LegendNANA
07:00 -0.4 -0.8 97 36 8   99.36   -3 LegendNANA
08:00 0.0 -0.8 95 1 9   99.44   -3 LegendNANA
09:00 0.8 -0.3 92 1 10   99.50     LegendNANA
10:00 1.9 0.2 89 2 12   99.55     LegendNANA
11:00 2.9 -0.2 80 3 16   99.61     LegendNANA
12:00 3.0 0.0 81 1 12   99.63     LegendNANA
13:00 3.2 -0.3 78 1 12   99.64     LegendNANA
14:00 3.7 -0.5 74 36 12   99.64     LegendNANA
15:00 3.8 -0.7 72 2 13   99.67     LegendNANA
16:00 3.2 -0.2 78 35 11   99.70     LegendNANA
17:00 2.3 -0.5 82 36 8   99.75     LegendNANA
18:00 1.7 0.1 89 36 5   99.80     LegendNANA
19:00 1.4 -0.4 88 1 7   99.84     LegendNANA
20:00 1.2 -0.5 89 1 8   99.89     LegendNANA
21:00 0.7 -0.8 90 35 9   99.93     LegendNANA
22:00 0.4 -1.3 88 36 8   99.99     LegendNANA
23:00 0.0 -1.7 88 1 7   100.01   -2 LegendNANA

Notes on Data Quality.

Legend

  • E = Estimated
  • M = Missing
  • NA = Not Available
  • ‡ = Partner data that is not subject to review by the National Climate Archives
Date modified: